Location: Eckley
(40.9930°N, 75.8630°W)
Time: 07:05:49
(UTC-04:00)

Daily predictions for brighter satellites

Satellite Brightness Start Highest point End
(mag) Time Altitude Azimuth Time Altitude Azimuth Time Altitude Azimuth
Cosmos 1624 Rocket 4.2 18:37:21 10° NNW 18:42:35 81° WSW 18:47:49 10° SSE
CZ-4 R/B 1.5 18:38:32 10° SSE 18:42:45 86° ENE 18:46:57 10° NNW
Cosmos 1626 2.3 18:41:02 10° N 18:44:42 52° E 18:48:19 10° SSE
SL-14 R/B 4.1 18:41:02 10° NNW 18:44:49 54° W 18:48:34 10° S
Cosmos 2366 rocket 4.0 18:38:56 10° S 18:45:06 69° E 18:51:15 10° NNE
CZ-2C R/B 3.7 18:41:01 10° NNE 18:45:35 88° ESE 18:50:01 10° SSW
BREEZE-M DEB (TANK) 1.8 18:43:24 10° SW 18:45:36 35° SE 18:47:33 10° ENE
ALOS 3.2 18:43:19 10° SE 18:47:16 28° ENE 18:51:13 10° N
IRS-1A Rocket 4.4 18:43:17 10° SSE 18:49:08 87° ENE 18:55:05 10° NNW
Cosmos 2360 Rocket 2.3 18:46:35 10° NNW 18:52:10 58° ENE 18:57:45 10° SE
APEX 4.3 18:51:34 10° SSE 18:53:49 17° ESE 18:55:47 10° ENE
COSMOS 2428 3.6 18:50:23 10° N 18:55:18 29° NE 19:00:11 10° ESE
Cosmos 2333 Rocket 3.7 18:54:22 10° N 18:58:11 18° NE 19:01:35 11° E
SL-8 Rocket 4.4 18:52:15 10° SSW 18:58:24 70° W 19:04:39 10° N
Cosmos 2322 Rocket 3.3 18:54:50 10° NW 19:00:14 50° WSW 19:05:37 10° S
Cosmos 1833 4.2 18:54:44 10° SSW 19:00:25 78° ESE 19:06:05 10° NNE
BREEZE-M DEB (TANK) 3.9 18:56:55 10° NW 19:00:54 60° NNE 19:16:04 10° ESE
MONITOR-E 4.2 18:58:03 10° SSE 19:01:03 54° ENE 19:04:04 10° N
COSMO-SKYMED 1 2.6 18:56:45 10° NNE 19:01:04 61° E 19:05:21 10° S
Cosmos 2219 4.1 18:58:35 10° SSE 19:03:21 27° ESE 19:08:07 10° NE
Abrixas 4.1 19:08:11 10° SSE 19:09:08 12° SE 19:09:11 12° SE
Abrixas rocket 4.0 19:09:53 10° WNW 19:12:37 23° N 19:14:57 12° NE
Cosmos 1805 Rocket 4.4 19:11:34 10° NNE 19:15:23 29° ENE 19:19:13 10° SE
FENGYUN 3A 3.7 19:12:08 10° SSE 19:17:23 56° ENE 19:22:42 10° N
Cosmos 1315 Rocket 2.8 19:13:27 10° N 19:17:30 63° E 19:21:35 10° SSE
Cosmos 44 3.4 19:15:38 10° S 19:19:44 41° ESE 19:23:08 14° NE
EO 1 Del DPAF 3.9 19:17:07 10° N 19:20:55 58° WNW 19:24:41 10° SSW
Meteor 2-1 Rocket 4.3 19:15:50 10° S 19:21:37 90° W 19:27:33 10° N
Cosmos 1821 Rocket 4.3 19:16:06 10° SSE 19:21:51 44° E 19:27:42 10° NNE
YAOGAN 1 3.7 19:19:55 10° S 19:24:04 46° W 19:28:16 10° NNW
Cosmos 2322 3.7 19:19:13 10° NNW 19:24:59 85° ENE 19:30:41 10° SSE
USA 267 4.1 19:25:18 18° E 19:28:58 29° SE 19:34:29 10° S
Cosmos 2151 3.8 19:27:29 10° NNW 19:31:41 55° W 19:35:49 10° S
Cosmos 1633 Rocket 4.2 19:28:09 10° NNE 19:31:28 23° ENE 19:31:28 23° ENE
Cosmos 1269 Rocket 4.2 19:26:58 10° S 19:32:01 50° ESE 19:37:07 10° NNE
DMSP B5D1-3 4.4 19:28:47 10° NNE 19:33:57 80° ESE 19:39:05 10° S
SPOT 3 Rocket 3.8 19:28:53 10° S 19:34:03 72° WSW 19:39:16 10° NNW
RESURS DK-1 3.3 19:36:24 10° NW 19:40:25 49° WSW 19:44:23 10° S
SJ-6B 3.3 19:40:35 34° ENE 19:40:35 34° ENE 19:43:56 10° N
Lacrosse 5 rocket 4.1 19:40:01 10° NNW 19:40:36 10° NNW 19:41:12 10° N
Cosmos 2219 Rocket 2.6 19:35:32 10° N 19:40:48 40° ENE 19:43:16 26° ESE
FREGAT/IRIS 2.9 19:42:27 45° NE 19:42:27 45° NE 19:44:59 10° N
Cosmos 44 Rocket 3.1 19:38:36 10° SSW 19:43:16 72° ESE 19:46:44 18° NE
SL-8 R/B 4.2 19:40:23 10° W 19:45:07 54° NNW 19:47:49 24° NE
Meteor 2-10 4.2 19:41:51 10° SSE 19:46:33 41° E 19:51:19 10° NNE
Cosmos 1452 Rocket 4.2 19:43:07 10° NNW 19:48:15 55° WSW 19:53:21 10° S
Cosmos 1726 2.0 19:44:52 10° S 19:48:32 66° E 19:52:13 10° NNE
Cosmos 2098 Rocket 3.2 19:44:50 10° S 19:49:10 76° E 19:54:47 10° N
Cosmos 2123 Rocket 4.2 19:45:18 10° N 19:51:20 48° ENE 19:57:21 10° SSE
Atlas Centaur 2 3.7 19:48:23 10° SW 19:52:01 21° S 19:54:54 15° SSE
BREEZE-M DEB (TANK) 3.8 19:52:44 10° WSW 19:54:00 15° SW 19:54:38 13° SSW
Delta 2 Rocket 3.9 19:52:26 10° WSW 19:55:48 34° S 19:56:09 33° S
Gbstr 26 Del rocket 3.8 19:51:00 10° NW 19:56:03 59° NNE 19:58:17 37° E
Cosmos 1605 Rocket 4.2 19:50:29 10° SSE 19:56:08 41° E 20:01:46 10° NNE
Aureole 2 Rocket 2.8 19:54:34 10° N 19:58:14 53° ENE 19:58:14 53° ENE
Cosmos 2221 3.2 19:55:09 10° SSW 19:59:22 54° W 20:03:39 10° N
Cosmos 2333 4.1 19:54:57 10° NNW 20:00:43 87° ENE 20:05:29 15° SSE
USA 234 4.5 20:02:15 22° NE 20:04:39 27° NNE 20:09:58 10° NW
CZ-4C R/B 2.0 19:59:33 10° SSW 20:04:42 84° SE 20:08:30 22° NE
Cosmos 1110 Rocket 4.2 20:02:25 10° N 20:07:34 47° ENE 20:07:45 47° ENE
BREEZE-M DEB (TANK) 4.4 20:06:21 10° WNW 20:07:09 16° NW 20:07:09 16° NW
H-2A R/B 2.8 20:07:32 27° S 20:09:33 76° WSW 20:13:30 10° NNW
Iridium 4 Rocket 4.3 20:06:12 10° SSW 20:11:38 59° W 20:17:26 10° N
In-Cosmos 22 Rocket 4.2 20:07:48 10° N 20:13:30 62° ENE 20:15:17 42° SE
Cosmos 2237 Rocket 2.7 20:08:09 10° N 20:13:12 40° NE 20:13:12 40° NE
DELTA 2 R/B (1) 4.2 20:12:17 10° W 20:17:38 48° SSW 20:19:09 38° SSE
Cosmos 2227 Rocket 3.6 20:15:18 10° S 20:17:28 23° SSE 20:17:28 23° SSE
Resurs 01 Rocket 3.2 20:23:46 23° N 20:23:46 23° N 20:25:36 10° N
SL-16 R/B 3.9 20:19:22 10° N 20:21:48 19° NNE 20:21:48 19° NNE
ALOS 4.2 20:20:33 10° SSW 20:24:36 29° W 20:28:42 10° NW
Envisat 3.9 20:35:33 37° N 20:35:33 37° N 20:38:42 10° N
Cosmos 1980 3.8 20:31:34 10° NNW 20:36:26 59° NNE 20:36:26 59° NNE
NOSS 0 Rocket 3.8 20:31:03 10° NNW 20:37:16 84° ENE 20:37:56 72° SE
Meteor 2-2 Rocket 4.1 20:32:17 10° S 20:38:00 88° W 20:43:42 10° N
COSMOS 2428 3.8 20:34:21 10° NW 20:39:41 42° WSW 20:44:03 15° S
Cosmos 2333 Rocket 2.2 20:37:22 10° NNW 20:43:08 78° WSW 20:43:38 72° SSW
Sich 1 4.1 20:39:49 10° NNW 20:43:59 44° W 20:44:35 41° WSW
Cosmos 2219 4.3 20:41:48 10° SW 20:47:15 43° WNW 20:52:43 10° NNE
BREEZE-M DEB (TANK) 3.7 20:46:13 10° WNW 20:52:04 44° NNW 20:52:04 44° NNW
Centaur D AC-29 3.8 20:57:20 10° SW 20:59:12 12° SSW 20:59:12 12° SSW
USA 267 3.3 21:12:42 74° WNW 21:12:42 74° WNW 21:18:51 10° WSW
Cosmos 2219 Rocket 3.8 21:19:49 10° NW 21:24:32 29° WSW 21:25:02 28° WSW
USA 234 4.4 21:49:37 35° NNW 21:49:37 35° NNW 21:53:19 10° NW
CZ-4C R/B 4.4 21:50:00 10° W 21:53:45 21° NW 21:53:45 21° NW
Cosmos 2237 Rocket 4.3 21:52:32 10° NW 21:55:03 22° WNW 21:55:03 22° WNW
